Bryce Canyon, UT

6:10 AM MDT on June 26, 2017 (GMT -0600)
Bryce Canyon

Weather History for KBCE - April, 2013

Change the Weather History Date:

Monday, April 22, 2013

  Actual Average Record
Temperature  
Mean Temperature 50 °F -  
Max Temperature 64 °F 54 °F 75 °F (2012)
Min Temperature 36 °F 25 °F 6 °F (1963)
Degree Days  
Heating Degree Days 15    
Moisture  
Dew Point 18 °F    
Average Humidity 32    
Maximum Humidity 57    
Minimum Humidity 13    
Precipitation  
Precipitation 0.00 in - - ()
Sea Level Pressure  
Sea Level Pressure 29.79 in    
Wind  
Wind Speed 13 mph (NW)    
Max Wind Speed 29 mph    
Max Gust Speed 40 mph    
Visibility 10 miles    
Events      
Averages and records for this station are not official NWS values.
T = Trace of Precipitation, MM = Missing Value Source: NWS Daily Summary

Daily Weather History Graph

Daily Weather History Graph

Search for Another Location

Airport or City:

Trip Planner

Search our weather history database for the weather conditions in past years. The results will help you decide how hot, cold, wet, or windy it might be!

Date:

Astronomy

Apr. 22, 2013 Rise Set
Actual Time 6:43 AM MDT 8:10 PM MDT
Civil Twilight 6:16 AM MDT 8:38 PM MDT
Nautical Twilight 5:43 AM MDT 9:11 PM MDT
Astronomical Twilight 5:08 AM MDT 9:46 PM MDT
Moon 5:07 PM MDT (4/22) 4:36 AM MDT (4/22)
Length of Visible Light 14h 22m
Length of Day
13h 27m
Waxing Gibbous, 88% of the Moon is Illuminated
Apr 22
Waxing Gibbous
Apr 25
Full
May 2
Last Quarter
May 9
New
May 17
First Quarter

Hourly Weather History & Observations

Time (MDT) Temp. Windchill Dew Point Humidity Pressure Visibility Wind Dir Wind Speed Gust Speed Precip Events Conditions
12:53 AM 37.0 °F 32.4 °F 18.0 °F 46% 29.88 in 10.0 mi NNE 5.8 mph - N/A   Clear
1:53 AM 36.0 °F 32.1 °F 19.0 °F 50% 29.86 in 10.0 mi NNE 4.6 mph - N/A   Clear
2:53 AM 44.1 °F 37.7 °F 18.0 °F 35% 29.81 in 10.0 mi NW 12.7 mph - N/A   Clear
3:53 AM 45.0 °F 38.5 °F 17.1 °F 33% 29.80 in 10.0 mi WNW 13.8 mph - N/A   Clear
4:53 AM 39.9 °F 33.4 °F 18.0 °F 41% 29.82 in 10.0 mi WNW 10.4 mph - N/A   Clear
5:53 AM 41.0 °F 33.9 °F 18.0 °F 40% 29.82 in 10.0 mi WNW 12.7 mph - N/A   Clear
6:53 AM 37.0 °F 30.4 °F 19.0 °F 48% 29.85 in 10.0 mi WNW 9.2 mph - N/A   Clear
7:53 AM 45.0 °F 41.2 °F 19.9 °F 37% 29.85 in 10.0 mi WNW 6.9 mph - N/A   Clear
8:53 AM 50.0 °F - 19.0 °F 29% 29.87 in 10.0 mi NW 12.7 mph 17.3 mph N/A   Clear
9:53 AM 53.1 °F - 18.0 °F 25% 29.86 in 10.0 mi WNW 20.7 mph 25.3 mph N/A   Clear
10:53 AM 57.0 °F - 16.0 °F 20% 29.86 in 10.0 mi WNW 17.3 mph 27.6 mph N/A   Clear
11:53 AM 59.0 °F - 15.1 °F 18% 29.83 in 10.0 mi West 21.9 mph 32.2 mph N/A   Clear
12:53 PM 60.1 °F - 15.1 °F 17% 29.81 in 10.0 mi NW 24.2 mph 34.5 mph N/A   Clear
1:53 PM 62.1 °F - 18.0 °F 18% 29.78 in 10.0 mi WNW 24.2 mph 34.5 mph N/A   Clear
2:53 PM 63.0 °F - 17.1 °F 17% 29.72 in 10.0 mi West 24.2 mph 31.1 mph N/A   Clear
3:53 PM 64.0 °F - 15.1 °F 15% 29.68 in 10.0 mi West 24.2 mph 32.2 mph N/A   Clear
4:53 PM 63.0 °F - 12.0 °F 14% 29.69 in 10.0 mi West 25.3 mph 34.5 mph N/A   Clear
5:53 PM 62.1 °F - 10.9 °F 13% 29.67 in 10.0 mi WNW 28.8 mph 35.7 mph N/A   Clear
6:53 PM 60.1 °F - 12.9 °F 16% 29.69 in 10.0 mi WNW 25.3 mph 40.3 mph N/A   Clear
7:53 PM 53.1 °F - 23.0 °F 31% 29.70 in 10.0 mi NNW 11.5 mph 21.9 mph N/A   Clear
8:53 PM 48.0 °F - 25.0 °F 41% 29.72 in 10.0 mi WNW 10.4 mph 18.4 mph N/A   Clear
9:53 PM 41.0 °F 39.0 °F 24.1 °F 51% 29.78 in 10.0 mi Variable 3.5 mph - N/A   Clear
10:53 PM 37.0 °F 28.1 °F 23.0 °F 57% 29.80 in 10.0 mi North 15.0 mph 23.0 mph N/A   Clear
11:53 PM 36.0 °F 26.7 °F 21.0 °F 55% 29.81 in 10.0 mi NW 15.0 mph 21.9 mph N/A   Clear